QPF
0.01 0.02 0.02 0.02 0.03 0.06 0.05 0.03 0.02 0.02 0.02 0.03 0.06 0.08 0.09 0.07 0.05 0.04 0.05 0.05 0.04 0.04 0.04 0.03 0.04 0.05 0.04 0.04 0.05 0.05 0.05 0.05 0.05 0.05 0.03 0.03 0.03 0.03 0.03 0.02 0.02 0.02 0.02
0.02 0.02 0.03 0.02 0.03 0.05 0.05 0.03 0.02 0.02 0.01 0.02 0.03 0.04 0.04 0.03 0.03 0.03 0.03 0.03 0.02 0.03 0.04 0.04 0.05 0.06 0.06 0.06 0.06 0.06 0.05 0.05 0.05 0.03 0.02 0.02 0.02 0.03 0.03 0.03 0.03 0.02 0.02
0.01 0.01 0.02 0.02 0.03 0.05 0.04 0.02 0.02 0.02 0.02 0.02 0.03 0.03 0.03 0.03 0.02 0.02 0.02 0.03 0.03 0.03 0.05 0.05 0.06 0.08 0.07 0.06 0.06 0.06 0.05 0.05 0.03 0.02 0.01 0.02 0.04 0.05 0.04 0.03 0.03 0.03 0.03
0.02 0.02 0.02 0.01 0.02 0.03 0.03 0.02 0.01 0.02 0.03 0.03 0.03 0.03 0.02 0.04 0.03 0.02 0.02 0.02 0.03 0.03 0.05 0.05 0.06 0.08 0.08 0.06 0.06 0.05 0.04 0.03 0.03 0.02 0.02 0.03 0.06 0.09 0.07 0.05 0.03 0.05 0.04
0.01 0.01 0.02 0.02 0.01 0.01 0.01 0.02 0.02 0.01 0.03 0.03 0.02 0.02 0.02 0.03 0.06 0.04 0.04 0.04 0.03 0.04 0.05 0.04 0.03 0.04 0.07 0.07 0.07 0.06 0.05 0.04 0.05 0.03 0.03 0.03 0.04 0.07 0.07 0.05 0.03 0.08 0.08
0.01 0.02 0.03 0.03 0.02 0.01 0.02 0.01 0.01 0.01 0.02 0.02 0.01 0.01 0.02 0.02 0.05 0.06 0.07 0.06 0.03 0.03 0.03 0.02 0.03 0.04 0.06 0.08 0.07 0.07 0.06 0.05 0.04 0.03 0.03 0.04 0.04 0.05 0.05 0.04 0.05 0.07 0.10
0.03 0.03 0.03 0.03 0.01 0.01 0.02 0.01 0.01 0.01 0.02 0.01 0.02 0.02 0.03 0.02 0.03 0.04 0.05 0.08 0.06 0.03 0.04 0.03 0.04 0.05 0.06 0.08 0.09 0.08 0.07 0.06 0.06 0.06 0.05 0.04 0.04 0.04 0.05 0.06 0.06 0.05 0.07
0.02 0.02 0.03 0.02 0.01 0.01 0.01 0.01 0.01 0.01 0.01 0.02 0.02 0.03 0.03 0.03 0.02 0.02 0.02 0.04 0.06 0.06 0.04 0.03 0.03 0.04 0.05 0.07 0.07 0.07 0.05 0.06 0.08 0.07 0.06 0.05 0.04 0.04 0.06 0.04 0.04 0.04 0.04
0.02 0.01 0.02 0.01 0.01 0.01 0.01 0.01 0.02 0.03 0.03 0.02 0.02 0.03 0.03 0.04 0.03 0.02 0.01 0.02 0.02 0.03 0.03 0.03 0.03 0.04 0.05 0.08 0.06 0.06 0.05 0.05 0.07 0.08 0.06 0.05 0.05 0.03 0.04 0.03 0.03 0.03 0.03
0.00 0.00 0.01 0.01 0.01 0.01 0.01 0.01 0.02 0.04 0.04 0.04 0.03 0.02 0.02 0.02 0.03 0.03 0.02 0.01 0.01 0.01 0.01 0.01 0.02 0.02 0.03 0.08 0.07 0.05 0.06 0.05 0.07 0.08 0.08 0.06 0.05 0.03 0.03 0.02 0.02 0.02 0.03
0.00 0.00 0.00 0.01 0.01 0.01 0.01 0.01 0.01 0.01 0.02 0.03 0.03 0.03 0.01 0.01 0.01 0.02 0.02 0.01 0.01 0.01 0.01 0.01 0.01 0.01 0.02 0.04 0.05 0.03 0.03 0.02 0.03 0.03 0.04 0.04 0.04 0.02 0.02 0.02 0.02 0.03 0.03
0.01 0.00 0.00 0.01 0.01 0.01 0.01 0.01 0.01 0.01 0.01 0.01 0.02 0.02 0.02 0.02 0.02 0.02 0.01 0.01 0.01 0.00 0.00 0.00 0.00 0.01 0.01 0.02 0.02 0.02 0.02 0.03 0.03 0.02 0.02 0.02 0.02 0.02 0.02 0.02 0.03 0.04 0.04
0.01 0.00 0.00 0.00 0.00 0.00 0.01 0.01 0.01 0.01 0.01 0.01 0.02 0.02 0.02 0.03 0.03 0.02 0.01 0.01 0.00 0.00 0.00 0.00 0.00 0.01 0.01 0.01 0.02 0.01 0.01 0.02 0.03 0.03 0.02 0.01 0.01 0.01 0.01 0.02 0.03 0.05 0.04
0.00 0.00 0.00 0.00 0.00 0.00 0.00 0.00 0.00 0.01 0.01 0.01 0.01 0.01 0.01 0.02 0.02 0.02 0.02 0.01 0.01 0.01 0.00 0.00 0.00 0.00 0.01 0.01 0.02 0.01 0.02 0.02 0.02 0.02 0.02 0.02 0.01 0.01 0.01 0.01 0.01 0.02 0.03
0.00 0.00 0.00 0.00 0.00 0.01 0.01 0.00 0.01 0.00 0.00 0.00 0.00 0.01 0.01 0.01 0.01 0.01 0.01 0.02 0.02 0.01 0.01 0.00 0.00 0.00 0.00 0.00 0.01 0.01 0.01 0.03 0.04 0.03 0.03 0.02 0.02 0.01 0.01 0.01 0.01 0.01 0.02
0.00 0.00 0.00 0.00 0.00 0.00 0.00 0.01 0.01 0.01 0.00 0.00 0.00 0.00 0.00 0.01 0.01 0.01 0.01 0.01 0.02 0.02 0.01 0.01 0.00 0.00 0.00 0.00 0.01 0.01 0.01 0.01 0.02 0.02 0.02 0.02 0.02 0.02 0.01 0.01 0.01 0.01 0.01
0.00 0.00 0.00 0.00 0.00 0.00 0.00 0.01 0.01 0.01 0.00 0.00 0.00 0.00 0.00 0.01 0.01 0.01 0.01 0.01 0.01 0.01 0.01 0.01 0.00 0.00 0.00 0.01 0.01 0.01 0.01 0.01 0.01 0.01 0.01 0.01 0.02 0.02 0.01 0.02 0.02 0.02 0.02
0.00 0.00 0.00 0.00 0.00 0.00 0.00 0.00 0.00 0.00 0.00 0.00 0.00 0.00 0.00 0.01 0.01 0.01 0.01 0.01 0.01 0.01 0.01 0.01 0.01 0.01 0.00 0.00 0.01 0.01 0.01 0.01 0.01 0.01 0.01 0.01 0.02 0.02 0.02 0.02 0.01 0.01 0.01
0.00 0.00 0.00 0.00 0.00 0.00 0.00 0.00 0.00 0.00 0.00 0.01 0.01 0.01 0.01 0.01 0.01 0.01 0.01 0.01 0.01 0.01 0.01 0.01 0.01 0.01 0.01 0.00 0.00 0.00 0.01 0.01 0.01 0.02 0.02 0.02 0.02 0.03 0.03 0.02 0.02 0.02 0.02
0.00 0.00 0.00 0.00 0.00 0.00 0.00 0.00 0.00 0.00 0.00 0.01 0.01 0.01 0.01 0.01 0.01 0.01 0.01 0.01 0.01 0.01 0.01 0.01 0.01 0.01 0.01 0.01 0.00 0.00 0.00 0.01 0.01 0.01 0.02 0.02 0.02 0.03 0.03 0.03 0.03 0.03 0.03
0.00 0.00 0.00 0.00 0.00 0.00 0.00 0.00 0.00 0.01 0.00 0.00 0.00 0.00 0.01 0.01 0.01 0.01 0.01 0.01 0.01 0.01 0.01 0.01 0.01 0.01 0.01 0.01 0.00 0.00 0.01 0.01 0.01 0.01 0.01 0.01 0.02 0.02 0.02 0.03 0.03 0.03 0.03
0.00 0.00 0.00 0.00 0.00 0.00 0.00 0.00 0.01 0.01 0.01 0.00 0.00 0.00 0.00 0.00 0.00 0.01 0.01 0.01 0.01 0.01 0.02 0.01 0.01 0.01 0.01 0.00 0.00 0.00 0.00 0.00 0.00 0.00 0.00 0.01 0.01 0.02 0.02 0.02 0.03 0.02 0.02
0.01 0.00 0.00 0.00 0.00 0.00 0.00 0.00 0.01 0.01 0.00 0.00 0.00 0.00 0.00 0.00 0.00 0.00 0.00 0.01 0.01 0.01 0.01 0.01 0.01 0.01 0.01 0.00 0.00 0.00 0.00 0.00 0.00 0.00 0.00 0.00 0.00 0.01 0.01 0.02 0.02 0.02 0.01
0.01 0.01 0.01 0.00 0.01 0.00 0.01 0.01 0.01 0.01 0.01 0.00 0.00 0.00 0.00 0.00 0.00 0.01 0.01 0.01 0.01 0.01 0.01 0.01 0.01 0.01 0.01 0.01 0.01 0.00 0.00 0.00 0.00 0.00 0.01 0.01 0.00 0.01 0.01 0.01 0.01 0.01 0.01
0.01 0.01 0.01 0.01 0.01 0.01 0.01 0.01 0.01 0.01 0.01 0.00 0.00 0.00 0.00 0.00 0.01 0.02 0.02 0.01 0.01 0.01 0.01 0.01 0.01 0.01 0.01 0.02 0.01 0.01 0.01 0.00 0.00 0.00 0.01 0.01 0.01 0.01 0.01 0.01 0.01 0.01 0.01
0.01 0.01 0.01 0.01 0.01 0.00 0.01 0.02 0.02 0.01 0.01 0.01 0.01 0.01 0.01 0.01 0.01 0.02 0.02 0.02 0.01 0.02 0.01 0.01 0.01 0.01 0.01 0.01 0.01 0.01 0.01 0.01 0.00 0.00 0.00 0.01 0.01 0.01 0.01 0.01 0.01 0.01 0.01
MSLP
1012.72 1012.71 1012.72 1012.78 1012.89 1013.07 1013.29 1013.55 1013.81 1014.05 1014.24 1014.38 1014.48 1014.57 1014.66 1014.77 1014.93 1015.12 1015.33 1015.55 1015.76 1015.94 1016.10 1016.22 1016.33 1016.41 1016.46 1016.46 1016.41 1016.28 1016.08 1015.82 1015.53 1015.26 1015.03 1014.86 1014.76 1014.67 1014.55 1014.32 1013.95 1013.42 1012.76
1013.18 1013.16 1013.16 1013.20 1013.30 1013.47 1013.70 1013.97 1014.27 1014.56 1014.83 1015.06 1015.25 1015.42 1015.57 1015.72 1015.87 1016.01 1016.15 1016.28 1016.38 1016.46 1016.52 1016.58 1016.64 1016.69 1016.72 1016.70 1016.63 1016.49 1016.28 1016.01 1015.73 1015.48 1015.27 1015.14 1015.05 1014.97 1014.83 1014.57 1014.15 1013.57 1012.88
1013.61 1013.59 1013.58 1013.61 1013.70 1013.87 1014.11 1014.41 1014.75 1015.11 1015.46 1015.78 1016.08 1016.33 1016.55 1016.74 1016.88 1016.99 1017.05 1017.08 1017.08 1017.05 1017.03 1017.01 1017.00 1017.00 1017.00 1016.96 1016.86 1016.69 1016.47 1016.19 1015.92 1015.67 1015.49 1015.38 1015.32 1015.24 1015.10 1014.82 1014.38 1013.78 1013.07
1013.98 1013.96 1013.95 1013.98 1014.08 1014.27 1014.53 1014.86 1015.24 1015.66 1016.08 1016.49 1016.87 1017.21 1017.49 1017.71 1017.87 1017.94 1017.95 1017.90 1017.80 1017.69 1017.57 1017.48 1017.41 1017.36 1017.31 1017.23 1017.10 1016.90 1016.65 1016.36 1016.08 1015.84 1015.67 1015.57 1015.52 1015.46 1015.33 1015.05 1014.61 1014.02 1013.32
1014.27 1014.26 1014.27 1014.33 1014.45 1014.65 1014.94 1015.30 1015.72 1016.18 1016.65 1017.12 1017.56 1017.96 1018.30 1018.55 1018.72 1018.78 1018.76 1018.65 1018.49 1018.31 1018.12 1017.97 1017.84 1017.74 1017.65 1017.53 1017.36 1017.12 1016.84 1016.52 1016.22 1015.98 1015.81 1015.72 1015.68 1015.64 1015.53 1015.28 1014.87 1014.30 1013.64
1014.50 1014.52 1014.56 1014.65 1014.81 1015.04 1015.35 1015.73 1016.17 1016.64 1017.13 1017.62 1018.09 1018.52 1018.89 1019.17 1019.35 1019.42 1019.38 1019.26 1019.07 1018.85 1018.63 1018.44 1018.28 1018.15 1018.01 1017.86 1017.65 1017.38 1017.06 1016.72 1016.39 1016.12 1015.95 1015.86 1015.83 1015.80 1015.72 1015.51 1015.15 1014.63 1014.01
1014.70 1014.75 1014.84 1014.98 1015.18 1015.45 1015.78 1016.16 1016.58 1017.04 1017.50 1017.98 1018.43 1018.86 1019.22 1019.51 1019.71 1019.79 1019.77 1019.66 1019.48 1019.26 1019.04 1018.85 1018.68 1018.54 1018.39 1018.21 1017.98 1017.69 1017.34 1016.97 1016.61 1016.32 1016.12 1016.03 1016.00 1015.99 1015.94 1015.78 1015.47 1015.02 1014.45
1014.91 1015.00 1015.14 1015.33 1015.58 1015.88 1016.21 1016.58 1016.96 1017.36 1017.76 1018.17 1018.58 1018.96 1019.30 1019.58 1019.79 1019.89 1019.90 1019.82 1019.68 1019.50 1019.32 1019.15 1019.01 1018.88 1018.74 1018.57 1018.34 1018.04 1017.68 1017.29 1016.92 1016.60 1016.38 1016.26 1016.23 1016.23 1016.20 1016.09 1015.85 1015.46 1014.96
1015.14 1015.28 1015.47 1015.72 1016.00 1016.32 1016.64 1016.97 1017.29 1017.61 1017.92 1018.23 1018.55 1018.86 1019.15 1019.40 1019.60 1019.73 1019.77 1019.75 1019.66 1019.54 1019.41 1019.30 1019.21 1019.12 1019.03 1018.89 1018.69 1018.42 1018.07 1017.69 1017.31 1016.97 1016.73 1016.58 1016.53 1016.53 1016.52 1016.45 1016.27 1015.95 1015.50
1015.40 1015.58 1015.81 1016.10 1016.41 1016.73 1017.03 1017.31 1017.55 1017.77 1017.97 1018.17 1018.37 1018.59 1018.82 1019.03 1019.22 1019.36 1019.44 1019.46 1019.44 1019.38 1019.33 1019.28 1019.26 1019.24 1019.21 1019.14 1019.00 1018.78 1018.48 1018.12 1017.75 1017.41 1017.15 1016.98 1016.90 1016.88 1016.88 1016.84 1016.70 1016.44 1016.06
1015.65 1015.85 1016.12 1016.42 1016.75 1017.06 1017.33 1017.55 1017.71 1017.83 1017.92 1018.00 1018.10 1018.22 1018.38 1018.54 1018.71 1018.85 1018.96 1019.02 1019.05 1019.06 1019.07 1019.10 1019.15 1019.21 1019.26 1019.27 1019.21 1019.07 1018.84 1018.54 1018.20 1017.88 1017.60 1017.41 1017.30 1017.26 1017.26 1017.23 1017.13 1016.93 1016.61
1015.83 1016.04 1016.32 1016.63 1016.95 1017.24 1017.47 1017.64 1017.73 1017.76 1017.75 1017.74 1017.75 1017.79 1017.88 1018.00 1018.14 1018.28 1018.40 1018.49 1018.56 1018.62 1018.68 1018.77 1018.89 1019.02 1019.16 1019.26 1019.30 1019.25 1019.12 1018.90 1018.62 1018.32 1018.05 1017.84 1017.71 1017.64 1017.62 1017.60 1017.53 1017.38 1017.12
1015.87 1016.08 1016.34 1016.65 1016.95 1017.22 1017.42 1017.54 1017.58 1017.55 1017.48 1017.40 1017.35 1017.34 1017.37 1017.46 1017.57 1017.70 1017.82 1017.93 1018.02 1018.11 1018.21 1018.34 1018.51 1018.71 1018.92 1019.11 1019.25 1019.31 1019.28 1019.15 1018.95 1018.70 1018.45 1018.24 1018.09 1018.00 1017.96 1017.93 1017.89 1017.79 1017.60
1015.73 1015.92 1016.17 1016.45 1016.73 1016.98 1017.16 1017.26 1017.27 1017.21 1017.11 1017.00 1016.91 1016.87 1016.88 1016.95 1017.04 1017.16 1017.28 1017.38 1017.48 1017.58 1017.70 1017.86 1018.06 1018.31 1018.58 1018.85 1019.08 1019.25 1019.32 1019.30 1019.18 1019.00 1018.79 1018.59 1018.42 1018.31 1018.26 1018.24 1018.22 1018.16 1018.04
1015.42 1015.58 1015.80 1016.06 1016.32 1016.54 1016.71 1016.80 1016.80 1016.75 1016.65 1016.54 1016.45 1016.41 1016.41 1016.47 1016.56 1016.66 1016.77 1016.88 1016.97 1017.08 1017.20 1017.37 1017.59 1017.86 1018.18 1018.51 1018.82 1019.08 1019.25 1019.33 1019.30 1019.19 1019.04 1018.86 1018.71 1018.60 1018.53 1018.51 1018.51 1018.49 1018.44
1014.97 1015.10 1015.29 1015.52 1015.75 1015.96 1016.12 1016.21 1016.23 1016.19 1016.11 1016.03 1015.96 1015.93 1015.94 1016.00 1016.09 1016.20 1016.31 1016.41 1016.50 1016.60 1016.73 1016.90 1017.12 1017.41 1017.76 1018.13 1018.50 1018.83 1019.09 1019.25 1019.31 1019.28 1019.19 1019.06 1018.93 1018.83 1018.77 1018.75 1018.77 1018.79 1018.80
1014.46 1014.56 1014.72 1014.91 1015.12 1015.31 1015.46 1015.56 1015.59 1015.58 1015.53 1015.47 1015.42 1015.41 1015.44 1015.51 1015.61 1015.72 1015.84 1015.94 1016.04 1016.15 1016.28 1016.46 1016.69 1016.98 1017.33 1017.73 1018.13 1018.51 1018.83 1019.07 1019.21 1019.25 1019.23 1019.15 1019.06 1018.98 1018.94 1018.93 1018.97 1019.02 1019.08
1013.99 1014.05 1014.17 1014.33 1014.50 1014.67 1014.81 1014.90 1014.94 1014.93 1014.90 1014.85 1014.83 1014.83 1014.87 1014.95 1015.05 1015.18 1015.31 1015.44 1015.56 1015.69 1015.84 1016.02 1016.26 1016.55 1016.90 1017.30 1017.71 1018.11 1018.47 1018.76 1018.96 1019.08 1019.12 1019.10 1019.06 1019.02 1019.00 1019.02 1019.07 1019.15 1019.24
1013.61 1013.63 1013.71 1013.82 1013.96 1014.08 1014.19 1014.25 1014.28 1014.26 1014.22 1014.18 1014.15 1014.15 1014.19 1014.28 1014.39 1014.53 1014.69 1014.84 1015.00 1015.17 1015.35 1015.55 1015.80 1016.10 1016.44 1016.82 1017.23 1017.63 1018.00 1018.31 1018.55 1018.72 1018.82 1018.87 1018.88 1018.88 1018.90 1018.94 1019.02 1019.13 1019.25
1013.35 1013.33 1013.36 1013.42 1013.49 1013.56 1013.61 1013.63 1013.61 1013.56 1013.50 1013.43 1013.38 1013.36 1013.40 1013.48 1013.60 1013.76 1013.94 1014.14 1014.35 1014.56 1014.78 1015.01 1015.28 1015.57 1015.91 1016.27 1016.64 1017.02 1017.37 1017.69 1017.95 1018.16 1018.30 1018.40 1018.47 1018.52 1018.58 1018.66 1018.77 1018.91 1019.06
1013.21 1013.13 1013.09 1013.08 1013.09 1013.09 1013.07 1013.02 1012.94 1012.83 1012.72 1012.61 1012.52 1012.48 1012.49 1012.56 1012.69 1012.87 1013.09 1013.33 1013.59 1013.84 1014.11 1014.38 1014.66 1014.96 1015.27 1015.60 1015.93 1016.27 1016.59 1016.89 1017.15 1017.37 1017.55 1017.69 1017.81 1017.91 1018.02 1018.15 1018.30 1018.47 1018.66
1013.12 1012.98 1012.87 1012.79 1012.71 1012.62 1012.52 1012.39 1012.24 1012.06 1011.89 1011.73 1011.60 1011.53 1011.52 1011.58 1011.71 1011.91 1012.16 1012.44 1012.73 1013.04 1013.34 1013.64 1013.94 1014.22 1014.51 1014.80 1015.09 1015.38 1015.66 1015.93 1016.17 1016.39 1016.59 1016.76 1016.92 1017.08 1017.24 1017.41 1017.60 1017.82 1018.06
1013.03 1012.82 1012.63 1012.46 1012.30 1012.12 1011.93 1011.73 1011.50 1011.26 1011.03 1010.83 1010.66 1010.56 1010.54 1010.59 1010.72 1010.93 1011.20 1011.50 1011.83 1012.17 1012.50 1012.81 1013.11 1013.38 1013.64 1013.89 1014.14 1014.38 1014.61 1014.84 1015.07 1015.28 1015.48 1015.68 1015.87 1016.07 1016.28 1016.50 1016.75 1017.02 1017.31
1012.87 1012.59 1012.32 1012.08 1011.83 1011.58 1011.31 1011.03 1010.75 1010.46 1010.19 1009.95 1009.77 1009.65 1009.61 1009.66 1009.79 1010.00 1010.27 1010.58 1010.92 1011.26 1011.59 1011.91 1012.19 1012.45 1012.68 1012.90 1013.11 1013.31 1013.51 1013.71 1013.91 1014.12 1014.33 1014.54 1014.76 1014.99 1015.24 1015.50 1015.79 1016.11 1016.45
1012.61 1012.26 1011.94 1011.62 1011.30 1010.99 1010.66 1010.34 1010.01 1009.69 1009.40 1009.15 1008.96 1008.83 1008.79 1008.83 1008.95 1009.15 1009.41 1009.70 1010.02 1010.35 1010.66 1010.95 1011.21 1011.45 1011.66 1011.85 1012.04 1012.22 1012.40 1012.60 1012.80 1013.00 1013.22 1013.45 1013.68 1013.93 1014.20 1014.49 1014.81 1015.16 1015.55
1012.25 1011.85 1011.47 1011.10 1010.74 1010.38 1010.02 1009.67 1009.32 1009.00 1008.70 1008.45 1008.26 1008.14 1008.09 1008.12 1008.22 1008.39 1008.61 1008.87 1009.14 1009.42 1009.69 1009.95 1010.18 1010.39 1010.59 1010.78 1010.96 1011.15 1011.35 1011.55 1011.77 1011.99 1012.22 1012.46 1012.70 1012.96 1013.23 1013.53 1013.86 1014.23 1014.64
Thickness
5721 5720 5719 5717 5716 5714 5713 5712 5713 5713 5713 5713 5713 5713 5713 5711 5711 5711 5709 5707 5708 5709 5710 5711 5711 5712 5712 5713 5713 5714 5715 5715 5715 5716 5716 5717 5718 5718 5719 5720 5721 5722 5723
5718 5717 5717 5714 5713 5711 5710 5709 5709 5708 5708 5707 5707 5706 5706 5706 5706 5706 5705 5704 5703 5704 5704 5705 5706 5707 5708 5709 5709 5709 5710 5710 5711 5711 5712 5712 5713 5714 5715 5716 5717 5718 5719
5715 5714 5714 5712 5710 5708 5707 5706 5706 5705 5703 5702 5701 5701 5701 5701 5701 5701 5701 5701 5701 5699 5699 5700 5701 5702 5703 5704 5704 5705 5705 5705 5706 5707 5707 5708 5709 5710 5711 5712 5712 5713 5714
5712 5711 5710 5709 5707 5706 5704 5703 5702 5701 5699 5698 5697 5697 5697 5696 5697 5697 5697 5697 5696 5696 5695 5695 5696 5697 5698 5699 5699 5700 5701 5701 5702 5702 5703 5703 5704 5705 5706 5707 5708 5709 5710
5709 5708 5706 5705 5704 5703 5702 5701 5699 5698 5695 5694 5694 5693 5693 5693 5692 5692 5693 5692 5692 5691 5692 5691 5691 5691 5692 5693 5695 5696 5696 5697 5697 5698 5698 5699 5699 5700 5701 5702 5703 5704 5705
5706 5705 5703 5703 5702 5701 5699 5698 5695 5694 5693 5692 5692 5690 5689 5689 5688 5688 5688 5687 5687 5688 5688 5688 5688 5687 5687 5688 5690 5691 5691 5692 5693 5693 5693 5694 5694 5695 5696 5697 5698 5699 5700
5702 5702 5701 5700 5699 5698 5696 5696 5693 5691 5690 5691 5689 5686 5686 5686 5685 5683 5683 5683 5683 5683 5683 5683 5683 5684 5684 5684 5685 5685 5686 5687 5688 5688 5688 5688 5689 5690 5691 5692 5693 5693 5694
5700 5699 5699 5698 5696 5694 5694 5693 5690 5689 5688 5688 5688 5685 5682 5682 5680 5680 5679 5678 5679 5679 5679 5679 5679 5679 5680 5680 5679 5679 5679 5680 5681 5682 5682 5683 5683 5684 5685 5686 5687 5688 5689
5697 5697 5696 5696 5694 5694 5692 5690 5689 5687 5686 5686 5687 5685 5680 5677 5677 5676 5676 5675 5675 5674 5674 5674 5675 5674 5674 5674 5674 5672 5673 5673 5675 5676 5677 5677 5678 5678 5679 5680 5681 5682 5683
5695 5694 5694 5693 5693 5692 5690 5689 5688 5686 5684 5683 5683 5682 5682 5680 5676 5672 5672 5672 5671 5670 5670 5670 5670 5670 5669 5669 5667 5666 5667 5667 5668 5670 5671 5672 5672 5672 5673 5674 5675 5675 5676
5694 5693 5692 5691 5690 5689 5688 5687 5685 5684 5683 5682 5681 5680 5678 5676 5677 5673 5668 5668 5668 5667 5667 5666 5665 5665 5664 5664 5663 5662 5661 5661 5662 5663 5664 5665 5666 5666 5667 5667 5668 5669 5669
5693 5692 5691 5690 5689 5688 5686 5685 5683 5682 5681 5680 5679 5679 5676 5674 5672 5670 5667 5666 5664 5664 5663 5661 5661 5660 5659 5658 5657 5655 5655 5656 5656 5657 5657 5658 5658 5659 5660 5661 5662 5662 5663
5692 5691 5690 5689 5688 5686 5685 5683 5682 5681 5680 5677 5676 5676 5675 5674 5672 5669 5667 5665 5662 5662 5659 5659 5657 5656 5655 5654 5652 5650 5650 5650 5650 5651 5651 5652 5652 5652 5653 5654 5655 5656 5657
5691 5690 5688 5687 5686 5684 5683 5681 5680 5679 5678 5676 5675 5673 5673 5672 5671 5668 5665 5662 5659 5659 5658 5657 5654 5653 5651 5649 5647 5646 5646 5645 5645 5645 5646 5646 5646 5646 5647 5647 5648 5649 5650
5689 5688 5687 5685 5683 5682 5681 5679 5678 5677 5676 5674 5673 5673 5671 5670 5668 5666 5664 5662 5658 5656 5654 5652 5651 5649 5647 5645 5643 5643 5643 5641 5641 5641 5641 5640 5640 5641 5641 5642 5642 5643 5643
5687 5686 5685 5684 5682 5679 5678 5676 5675 5674 5673 5671 5670 5669 5668 5668 5666 5663 5662 5661 5659 5656 5652 5651 5647 5646 5643 5642 5640 5640 5639 5637 5636 5636 5636 5636 5636 5636 5636 5636 5636 5637 5638
5684 5683 5682 5681 5680 5678 5677 5674 5673 5672 5671 5670 5669 5668 5665 5664 5663 5661 5660 5658 5656 5654 5649 5647 5645 5643 5640 5639 5638 5637 5636 5635 5634 5632 5632 5631 5631 5631 5631 5631 5631 5631 5632
5682 5681 5679 5678 5676 5675 5673 5672 5670 5669 5668 5667 5666 5665 5663 5661 5660 5659 5657 5656 5653 5651 5648 5643 5642 5639 5638 5636 5634 5633 5632 5632 5631 5629 5628 5627 5627 5627 5626 5626 5626 5626 5626
5678 5677 5676 5675 5673 5671 5669 5668 5667 5666 5666 5665 5664 5662 5661 5660 5657 5656 5654 5653 5650 5648 5645 5642 5640 5636 5635 5633 5630 5629 5629 5628 5627 5626 5624 5624 5623 5623 5622 5622 5621 5621 5621
5674 5673 5673 5671 5669 5668 5666 5666 5665 5663 5662 5661 5660 5659 5658 5657 5654 5653 5651 5649 5647 5644 5642 5639 5636 5634 5631 5630 5628 5627 5626 5625 5624 5623 5622 5621 5620 5619 5618 5617 5617 5616 5615
5670 5669 5668 5667 5665 5664 5662 5661 5660 5659 5658 5658 5656 5655 5653 5651 5649 5648 5647 5646 5643 5641 5639 5636 5634 5632 5629 5627 5625 5624 5622 5622 5620 5619 5619 5619 5618 5617 5616 5613 5612 5611 5609
5666 5664 5663 5661 5659 5658 5654 5652 5653 5654 5654 5654 5652 5651 5649 5646 5643 5640 5639 5638 5637 5637 5636 5633 5632 5630 5628 5626 5623 5620 5618 5618 5617 5616 5615 5615 5614 5613 5612 5610 5607 5606 5604
5660 5658 5657 5656 5654 5652 5648 5647 5646 5648 5650 5649 5648 5647 5644 5642 5639 5639 5636 5632 5631 5629 5629 5630 5628 5627 5625 5623 5619 5616 5615 5614 5612 5611 5609 5610 5610 5609 5607 5605 5602 5600 5599
5655 5653 5652 5651 5649 5647 5644 5642 5641 5643 5644 5644 5643 5642 5640 5638 5636 5635 5634 5632 5630 5628 5625 5623 5623 5622 5620 5617 5614 5612 5610 5608 5606 5604 5603 5604 5605 5604 5603 5601 5597 5595 5593
5650 5648 5646 5645 5644 5643 5639 5637 5636 5639 5639 5639 5638 5637 5635 5634 5629 5627 5627 5627 5625 5623 5619 5616 5614 5613 5611 5609 5607 5605 5604 5603 5602 5601 5598 5598 5599 5598 5598 5597 5594 5590 5588
5644 5643 5641 5640 5639 5638 5635 5633 5631 5635 5635 5634 5632 5631 5627 5625 5622 5619 5621 5621 5619 5618 5615 5613 5610 5607 5606 5603 5600 5600 5599 5599 5599 5597 5595 5592 5592 5591 5592 5592 5590 5587 5584